Location: Betpouey
(42.8833°N, 0.0333°E)
Time: 08:15:43
(UTC+00:00)

CZ-4B R/B - Pass Details

Date: 01 December 2020
Orbit: 390 x 458 km, 97.6° (Epoch: 17 January)

Event Time Altitude Azimuth Distance (km) Brightness Sun altitude
Exits shadow 18:30:45 12° 340° (NNW) 1,346 3.9 -22.1°
Maximum altitude 18:32:56 23° 290° (WNW) 925 3.6 -22.5°
Drops below altitude 10° 18:35:29 10° 236° (SW) 1,481 4.9 -23.0°
Sets 18:37:44 0° 221° (SW) 2,353 5.8 -23.4°
